CAPE
0 0 0 0 0 0 0 0 0 0 0 0 0 0 0 0 0 0 0 0 0 0 0 0 0 0 0 0 0 0 0 0
0 0 0 0 0 0 0 0 0 0 0 0 0 0 0 0 0 0 0 0 0 0 0 0 0 0 0 0 0 0 0 0
0 0 0 0 0 0 0 0 0 0 0 0 0 0 0 0 0 0 0 0 0 0 0 0 0 0 0 0 0 0 0 0
0 0 0 0 0 0 0 0 0 0 0 0 0 0 0 0 0 0 0 0 0 0 0 0 0 0 0 0 0 0 0 0
0 0 0 0 0 0 0 0 0 0 0 0 0 0 0 0 0 0 0 0 0 0 0 0 0 0 0 0 0 0 0 0
0 0 0 0 0 0 0 0 0 0 0 0 0 0 0 0 0 0 0 0 0 0 0 0 0 0 0 0 0 0 0 0
0 0 0 0 0 0 0 0 0 0 0 0 0 0 0 0 0 0 0 0 0 0 0 0 0 0 0 0 0 0 0 0
0 0 0 0 0 0 0 0 0 0 0 0 0 0 0 0 0 0 0 0 0 0 0 0 0 0 0 1 5 9 9 4
0 0 0 0 0 0 0 0 0 0 0 0 0 0 0 0 0 0 0 0 0 0 0 0 0 0 0 1 0 1 1 1
0 0 0 0 0 0 0 0 0 0 0 0 0 0 0 0 0 0 0 0 0 0 0 0 0 0 0 0 0 0 2 2
0 0 0 0 0 0 0 0 0 0 0 0 0 0 0 0 0 0 0 0 0 0 0 0 0 3 4 1 0 0 3 4
0 0 0 0 0 0 0 0 0 0 0 0 0 0 0 0 0 0 0 0 0 0 0 0 1 4 6 12 11 18 10 4
0 0 0 0 0 0 0 0 0 0 0 0 0 0 0 0 0 0 0 0 1 8 4 3 3 0 0 0 0 0 0 0
0 0 0 0 0 0 0 0 0 0 0 0 0 0 0 0 0 0 1 2 2 1 0 0 3 0 0 0 0 0 0 0
0 0 0 0 0 0 0 0 0 0 0 0 0 0 0 0 0 0 1 1 0 0 0 0 0 0 0 0 0 0 0 0
0 0 0 0 0 0 0 0 0 0 0 0 0 0 1 0 0 2 0 1 0 2 0 0 0 0 0 0 0 0 0 0
0 0 0 0 0 0 0 0 0 0 0 0 2 2 4 4 4 5 6 23 5 0 0 0 0 0 0 0 0 0 0 0
0 0 0 0 0 0 0 0 0 0 0 2 3 0 0 1 0 0 0 0 0 0 0 0 0 0 0 0 0 0 0 0
0 0 0 0 0 0 0 0 0 0 0 0 0 0 0 0 0 0 0 0 0 0 0 0 0 0 0 0 0 0 2 1
CIN
0 0 0 0 0 0 0 0 0 0 0 0 0 0 0 0 0 0 0 0 0 0 0 0 0 0 0 0 0 0 0 0
0 0 0 0 0 0 0 0 0 0 0 0 0 0 0 0 0 0 0 0 0 0 0 0 0 0 0 0 0 0 0 0
0 0 0 0 0 0 0 0 0 0 0 0 0 0 0 0 0 0 0 0 0 0 0 0 0 0 0 0 0 0 0 0
0 0 0 0 0 0 0 0 0 0 0 0 0 0 0 0 0 0 0 0 0 0 0 0 0 0 0 0 0 0 0 0
0 0 0 0 0 0 0 0 0 0 0 0 0 0 0 0 0 0 0 0 0 0 0 0 0 0 0 0 0 0 0 0
0 0 0 0 0 0 0 0 0 0 0 0 0 0 0 0 0 0 0 0 0 0 0 0 0 0 0 0 0 0 0 0
0 0 0 0 0 0 0 0 0 0 0 0 0 0 0 0 0 0 0 0 0 0 0 0 0 0 0 0 0 0 0 0
0 0 0 0 0 0 0 0 0 0 0 0 0 0 0 0 0 0 0 0 0 0 0 0 0 0 0 -0 -0 0 0 -0
0 0 0 0 0 0 0 0 0 0 0 0 0 0 0 0 0 0 0 0 0 0 0 0 0 0 -0 -0 0 0 0 0
0 0 0 0 0 0 0 0 0 0 0 0 0 0 0 0 0 0 0 0 0 0 0 0 0 0 0 0 0 0 0 0
0 0 0 0 0 0 0 0 0 0 0 0 0 0 0 0 0 0 0 0 0 0 -3 0 -1 -2 -2 -2 0 -0 -0 -0
0 0 0 0 0 0 0 0 0 0 0 0 0 0 0 0 0 0 0 0 0 -1 0 -0 -0 -0 -0 -0 -2 -1 -4 -9
0 0 0 0 0 0 0 0 0 0 0 0 0 0 0 0 0 0 0 0 -0 -0 -0 0 0 0 -0 0 0 0 0 0
0 0 0 0 0 0 0 0 0 0 0 0 0 0 0 0 0 0 0 0 -1 0 0 0 -5 0 0 0 0 0 0 0
0 0 0 0 0 0 0 0 0 0 0 0 0 0 0 0 0 0 0 -0 -0 0 0 0 0 0 0 0 0 0 0 0
0 0 0 0 0 0 0 0 0 0 0 0 0 0 -4 -2 0 -0 0 -14 -0 0 0 0 0 0 0 0 0 0 0 0
0 0 0 0 0 0 0 0 0 0 0 0 -4 -9 -0 -0 -2 -11 -5 -1 -1 0 0 0 0 0 0 0 0 0 0 0
0 0 0 0 0 0 0 0 0 0 0 -1 -6 0 0 -0 0 0 0 0 0 0 0 0 0 0 0 0 0 0 0 0
0 0 0 0 0 0 0 0 0 0 0 0 0 0 0 0 0 0 0 0 0 0 0 0 0 0 0 0 0 -0 -1 -1
Wind_Speed
7 9 11 9 8 7 7 9 11 15 18 20 21 21 22 22 22 23 24 23 23 23 23 23 23 24 24 23 23 22 22 23
13 14 12 11 9 8 8 11 14 18 21 23 24 24 26 26 27 27 26 27 26 26 27 28 26 26 26 25 26 26 25 25
18 18 17 14 13 13 15 18 21 22 22 24 25 27 28 29 30 31 32 32 32 31 31 31 31 31 31 30 29 30 30 26
20 21 21 21 21 20 20 21 22 25 26 27 28 28 29 31 35 38 39 40 40 39 38 37 37 35 35 34 32 33 35 33
23 23 23 24 23 22 22 22 23 27 29 30 31 33 35 35 38 39 42 41 42 41 40 39 38 37 37 36 34 34 35 38
23 23 23 23 23 24 23 24 27 30 30 32 33 35 35 38 41 44 43 43 43 42 41 40 39 38 38 38 37 35 34 35
23 22 22 24 25 26 27 28 28 30 32 33 36 39 43 45 48 49 49 48 46 42 41 39 38 36 35 33 32 31 31 29
25 25 26 27 29 29 28 30 31 35 38 41 42 41 43 44 47 48 49 48 45 43 39 37 35 32 30 28 28 28 27 27
25 27 28 29 30 31 32 36 41 42 42 41 39 39 42 45 46 47 47 47 43 37 33 31 30 29 28 28 28 27 27 27
30 32 32 32 33 35 38 40 39 37 38 38 38 39 43 45 47 47 47 44 37 32 31 30 28 27 27 26 27 27 25 24
35 35 36 35 33 37 37 37 37 37 37 36 37 41 43 46 48 49 45 39 33 30 30 30 29 29 27 27 26 23 24 25
34 33 34 34 32 36 37 38 38 38 38 37 40 43 46 48 48 45 40 33 29 31 29 28 29 29 28 27 26 27 27 29
34 34 35 36 37 39 41 41 40 40 39 40 43 45 46 46 43 39 34 32 30 30 30 30 29 27 26 28 28 29 29 31
35 37 39 39 40 42 42 42 41 41 40 42 43 43 43 41 38 35 31 30 31 31 30 29 29 29 30 30 31 33 34 35
37 38 40 40 41 41 43 43 42 41 42 43 43 41 38 36 34 33 32 30 28 27 29 29 29 30 32 33 35 36 36 36
37 40 41 41 43 44 45 45 44 42 42 43 40 36 34 34 32 30 29 28 28 29 29 29 31 32 33 35 36 36 37 38
38 39 41 42 46 47 46 45 43 41 44 42 38 37 34 34 30 29 30 30 30 30 29 30 32 33 34 36 38 39 40 40
39 39 41 43 45 44 44 44 42 43 42 39 36 34 32 31 30 31 31 31 30 31 31 32 33 33 35 39 39 38 38 39
37 39 41 43 44 43 42 41 42 39 39 37 36 34 32 31 31 32 33 32 32 32 33 32 34 35 38 39 40 38 38 39
Wind_Direction
359 354 348 347 348 352 350 346 346 347 347 346 346 345 344 345 347 344 343 341 338 335 332 328 326 322 320 317 314 314 313 312
2 348 345 349 357 356 348 343 342 340 341 341 341 341 341 342 342 342 339 337 333 330 327 324 320 315 311 310 309 307 306 307
12 9 12 15 6 0 349 344 341 341 342 340 339 336 335 334 336 337 336 334 331 327 323 320 316 312 308 304 301 301 301 299
5 359 359 356 353 349 346 344 343 342 340 339 338 338 337 334 332 330 330 329 327 324 321 318 315 311 307 303 298 293 294 296
351 349 349 349 349 350 349 350 349 346 344 341 339 337 333 332 329 328 327 326 324 323 322 319 317 314 309 307 302 296 293 290
346 348 353 356 356 355 354 350 345 342 342 340 338 335 333 331 328 327 327 326 325 324 322 320 318 316 312 309 305 301 296 290
353 357 358 354 351 347 345 343 343 342 341 340 337 333 330 328 326 325 325 325 324 324 323 322 321 320 318 316 313 310 305 300
360 359 355 351 347 346 346 343 340 338 336 334 332 330 329 328 327 326 325 325 324 324 325 325 327 328 329 327 324 321 318 312
357 353 349 346 346 345 343 338 334 333 332 332 332 332 330 329 328 327 325 325 324 325 327 329 330 331 330 329 326 324 321 317
343 341 342 342 340 340 338 336 336 336 335 334 333 332 331 329 328 328 326 326 326 327 329 330 330 330 328 328 324 321 320 321
337 337 337 338 338 338 337 336 336 335 335 334 333 333 333 331 330 329 328 329 329 330 330 330 330 329 327 327 327 326 321 317
341 342 342 342 341 338 338 337 335 334 335 335 334 333 333 333 332 333 333 334 335 333 333 334 334 333 331 329 329 324 319 316
343 343 343 341 339 339 339 339 337 336 335 334 333 333 335 335 336 338 339 339 341 340 337 334 334 333 330 327 325 322 319 316
343 342 342 341 339 339 338 339 338 337 336 334 334 335 336 338 341 344 345 342 339 338 337 336 333 331 328 325 322 319 317 315
340 341 341 340 342 342 340 340 340 338 336 335 334 336 340 342 342 344 344 344 343 343 340 337 336 330 326 324 322 320 319 317
338 339 340 341 341 340 340 339 339 339 339 338 338 338 341 343 344 346 346 346 344 341 339 336 333 329 328 326 324 322 319 317
337 339 341 341 340 339 340 341 341 343 340 339 340 342 343 344 346 346 345 343 342 342 340 337 333 331 329 326 323 320 318 316
337 340 340 340 341 342 342 342 343 343 344 346 347 348 349 348 348 347 347 345 344 342 340 337 335 333 330 325 322 321 319 318
338 339 340 342 343 343 344 344 343 345 346 348 349 349 349 351 349 347 345 345 343 341 339 337 334 332 329 326 323 321 320 319